Sparta, TN

9:13 AM CDT on April 29, 2017 (GMT -0500)
Upper Cumberland Regional

Weather History for KSRB - June, 2013

Change the Weather History Date:

Thursday, June 20, 2013

  Actual Average (KCSV) Record (KCSV)
Temperature  
Mean Temperature 74 °F -  
Max Temperature 87 °F 81 °F 90 °F (1990)
Min Temperature 62 °F 61 °F 48 °F (1957)
Cooling Degree Days 10    
Growing Degree Days 24 (Base 50)    
Moisture  
Dew Point 46 °F    
Average Humidity 54    
Maximum Humidity 100    
Minimum Humidity 14    
Precipitation  
Precipitation 0.00 in - - ()
Sea Level Pressure  
Sea Level Pressure 30.16 in    
Wind  
Wind Speed 2 mph (South)    
Max Wind Speed 12 mph    
Max Gust Speed -    
Visibility 9 miles    
Events      
Averages and records for this station are not official NWS values.
T = Trace of Precipitation, MM = Missing Value Source: NWS Daily Summary

Daily Weather History Graph

Daily Weather History Graph

Search for Another Location

Airport or City:

Trip Planner

Search our weather history database for the weather conditions in past years. The results will help you decide how hot, cold, wet, or windy it might be!

Date:

Astronomy

Jun. 20, 2013 Rise Set
Actual Time 5:25 AM CDT 8:02 PM CDT
Civil Twilight 4:55 AM CDT 8:32 PM CDT
Nautical Twilight 4:17 AM CDT 9:10 PM CDT
Astronomical Twilight 3:35 AM CDT 9:52 PM CDT
Moon 5:06 PM CDT (6/20) 2:47 AM CDT (6/20)
Length of Visible Light 15h 37m
Length of Day
14h 36m
Waxing Gibbous, 89% of the Moon is Illuminated
Jun 20
Waxing Gibbous
Jun 23
Full
Jun 29
Last Quarter
Jul 8
New
Jul 15
First Quarter

Hourly Weather History & Observations

Time (CDT) Temp. Dew Point Humidity Pressure Visibility Wind Dir Wind Speed Gust Speed Precip Events Conditions
12:15 AM 64.4 °F 64.4 °F 100% 30.11 in 9.0 mi Calm Calm - N/A   Clear
12:35 AM 64.4 °F 64.4 °F 100% 30.11 in 7.0 mi Calm Calm - N/A   Clear
12:55 AM 64.4 °F 64.4 °F 100% 30.11 in 9.0 mi Calm Calm - N/A   Clear
1:15 AM 64.4 °F 64.4 °F 100% 30.10 in 8.0 mi Calm Calm - N/A   Clear
1:35 AM 64.4 °F 64.4 °F 100% 30.10 in 8.0 mi Calm Calm - N/A   Clear
1:55 AM 64.4 °F 64.4 °F 100% 30.11 in 10.0 mi Calm Calm - N/A   Clear
2:15 AM 64.4 °F 64.4 °F 100% 30.11 in 10.0 mi Calm Calm - N/A   Clear
2:35 AM 62.6 °F 62.6 °F 100% 30.11 in 8.0 mi Calm Calm - N/A   Clear
2:55 AM 64.4 °F 62.6 °F 94% 30.11 in 10.0 mi Calm Calm - N/A   Clear
3:15 AM 64.4 °F 62.6 °F 94% 30.12 in 7.0 mi Calm Calm - N/A   Clear
3:35 AM 62.6 °F 62.6 °F 100% 30.12 in 6.0 mi Calm Calm - N/A   Clear
3:55 AM 62.6 °F 62.6 °F 100% 30.13 in 6.0 mi Calm Calm - N/A   Clear
4:15 AM 62.6 °F 62.6 °F 100% 30.13 in 8.0 mi Calm Calm - N/A   Clear
4:35 AM 62.6 °F 62.6 °F 100% 30.13 in 9.0 mi Calm Calm - N/A   Clear
4:55 AM 62.6 °F 62.6 °F 100% 30.14 in 8.0 mi Calm Calm - N/A   Clear
5:15 AM 62.6 °F 62.6 °F 100% 30.14 in 8.0 mi Calm Calm - N/A   Clear
5:35 AM 62.6 °F 62.6 °F 100% 30.14 in 5.0 mi Calm Calm - N/A   Clear
5:55 AM 62.6 °F 62.6 °F 100% 30.15 in 5.0 mi Calm Calm - N/A   Clear
6:15 AM 64.4 °F 62.6 °F 94% 30.15 in 5.0 mi Calm Calm - N/A   Clear
6:35 AM 64.4 °F 64.4 °F 100% 30.16 in 7.0 mi Calm Calm - N/A   Clear
6:55 AM 66.2 °F 66.2 °F 100% 30.16 in 10.0 mi Calm Calm - N/A   Clear
7:15 AM 69.8 °F 69.8 °F 100% 30.17 in 10.0 mi Calm Calm - N/A   Clear
7:35 AM 71.6 °F 71.6 °F 100% 30.18 in 10.0 mi Calm Calm - N/A   Clear
7:55 AM 73.4 °F 73.4 °F 100% 30.18 in 10.0 mi South 5.8 mph - N/A   Clear
8:15 AM 73.4 °F 73.4 °F 100% 30.19 in 10.0 mi South 4.6 mph - N/A   Clear
8:35 AM 75.2 °F 73.4 °F 94% 30.19 in 10.0 mi South 3.5 mph - N/A   Clear
8:55 AM 75.2 °F 75.2 °F 100% 30.19 in 10.0 mi SSW 3.5 mph - N/A   Clear
9:15 AM 78.8 °F 75.2 °F 89% 30.19 in 10.0 mi SSW 8.1 mph - N/A   Clear
9:35 AM 78.8 °F 75.2 °F 89% 30.19 in 0.2 mi SSW 5.8 mph - N/A   Unknown
9:55 AM 77.0 °F 77.0 °F 100% 30.20 in 0.2 mi SSW 5.8 mph - N/A   Unknown
10:15 AM 80.6 °F 32.0 °F 17% 30.20 in 10.0 mi WSW 3.5 mph - N/A   Clear
10:35 AM 80.6 °F 32.0 °F 17% 30.20 in 6.0 mi Variable 6.9 mph - N/A   Clear
10:55 AM 82.4 °F 32.0 °F 16% 30.20 in 9.0 mi Variable 4.6 mph - N/A   Partly Cloudy
11:15 AM 82.4 °F 32.0 °F 16% 30.19 in 10.0 mi SSW 5.8 mph - N/A   Clear
11:35 AM 82.4 °F 32.0 °F 16% 30.19 in 10.0 mi SSW 4.6 mph - N/A   Clear
11:55 AM 84.2 °F 32.0 °F 15% 30.18 in 10.0 mi Variable 5.8 mph - N/A   Partly Cloudy
12:15 PM 84.2 °F 32.0 °F 15% 30.18 in 10.0 mi West 5.8 mph - N/A   Partly Cloudy
12:35 PM 84.2 °F 32.0 °F 15% 30.18 in 9.0 mi Calm Calm - N/A   Clear
12:55 PM 86.0 °F 32.0 °F 14% 30.17 in 10.0 mi South 3.5 mph - N/A   Scattered Clouds
1:15 PM 84.2 °F 32.0 °F 15% 30.17 in 10.0 mi Variable 4.6 mph - N/A   Scattered Clouds
1:35 PM 87.8 °F 32.0 °F 14% 30.16 in 10.0 mi West 6.9 mph - N/A   Partly Cloudy
1:55 PM 87.8 °F 32.0 °F 14% 30.16 in 10.0 mi WSW 3.5 mph - N/A   Partly Cloudy
2:15 PM 86.0 °F 32.0 °F 14% 30.16 in 10.0 mi SW 8.1 mph - N/A   Scattered Clouds
2:35 PM 82.4 °F 32.0 °F 16% 30.16 in 10.0 mi Variable 5.8 mph - N/A   Scattered Clouds
2:55 PM 82.4 °F 32.0 °F 16% 30.16 in 10.0 mi SSW 8.1 mph - N/A   Partly Cloudy
3:15 PM 82.4 °F 32.0 °F 16% 30.15 in 9.0 mi SSW 6.9 mph - N/A   Partly Cloudy
3:35 PM 82.4 °F 32.0 °F 16% 30.15 in 10.0 mi South 9.2 mph - N/A   Partly Cloudy
3:55 PM 82.4 °F 32.0 °F 16% 30.15 in 10.0 mi SE 10.4 mph - N/A   Clear
4:15 PM 80.6 °F 32.0 °F 17% 30.15 in 8.0 mi ESE 10.4 mph - N/A   Clear
4:35 PM 80.6 °F 32.0 °F 17% 30.15 in 7.0 mi ESE 9.2 mph - N/A   Clear
4:55 PM 78.8 °F 32.0 °F 18% 30.15 in 9.0 mi East 9.2 mph - N/A   Clear
5:15 PM 77.0 °F 32.0 °F 19% 30.15 in 10.0 mi NNE 8.1 mph - N/A   Scattered Clouds
5:35 PM 75.2 °F 32.0 °F 21% 30.18 in 10.0 mi NW 11.5 mph - N/A   Overcast
5:55 PM 69.8 °F 32.0 °F 25% 30.19 in 9.0 mi WNW 10.4 mph - N/A   Overcast
6:15 PM 66.2 °F 32.0 °F 28% 30.18 in 5.0 mi Variable 3.5 mph - N/A   Mostly Cloudy
6:35 PM 66.2 °F 32.0 °F 28% 30.17 in 9.0 mi SSW 4.6 mph - N/A   Mostly Cloudy
6:55 PM 66.2 °F 32.0 °F 28% 30.19 in 10.0 mi Calm Calm - N/A   Mostly Cloudy
7:15 PM 66.2 °F 32.0 °F 28% 30.19 in 5.0 mi Calm Calm - N/A   Mostly Cloudy
7:35 PM 66.2 °F 32.0 °F 28% 30.18 in 10.0 mi NNE 3.5 mph - N/A   Scattered Clouds
7:55 PM 66.2 °F 32.0 °F 28% 30.18 in 10.0 mi SSE 5.8 mph - N/A   Clear
8:15 PM 66.2 °F 32.0 °F 28% 30.18 in 10.0 mi Calm Calm - N/A   Clear
8:35 PM 64.4 °F 32.0 °F 30% 30.18 in 10.0 mi Calm Calm - N/A   Clear
8:55 PM 64.4 °F 32.0 °F 30% 30.18 in 10.0 mi Calm Calm - N/A   Clear
9:15 PM 64.4 °F 32.0 °F 30% 30.18 in 10.0 mi Calm Calm - N/A   Clear
9:35 PM 64.4 °F 32.0 °F 30% 30.19 in 10.0 mi SSE 3.5 mph - N/A   Clear
9:55 PM 64.4 °F 32.0 °F 30% 30.20 in 10.0 mi SSE 3.5 mph - N/A   Clear
10:15 PM 64.4 °F 32.0 °F 30% 30.20 in 10.0 mi South 3.5 mph - N/A   Clear
10:35 PM 64.4 °F 32.0 °F 30% 30.20 in 10.0 mi East 3.5 mph - N/A   Clear
10:55 PM 64.4 °F 32.0 °F 30% 30.21 in 10.0 mi Calm Calm - N/A   Clear
11:15 PM 64.4 °F 32.0 °F 30% 30.21 in 10.0 mi Calm Calm - N/A   Clear
11:35 PM 62.6 °F 32.0 °F 32% 30.21 in 8.0 mi Calm Calm - N/A   Clear
11:55 PM 62.6 °F 32.0 °F 32% 30.21 in 7.0 mi Calm Calm - N/A   Clear